Preview of NWS' New Version of Forecast
This preview is not operational and should not be used for support decisions.

Regional Weather Roundup (RWR)

Issued by National Weather Service (NWS)

                            
000
ASUS46 KSEW 180310
RWRWA 

WASHINGTON REGIONAL WEATHER ROUNDUP
NATIONAL WEATHER SERVICE SEATTLE WA
800 PM PDT WED APR 17 2019

NOTE:"FAIR" INDICATES FEW OR NO CLOUDS BELOW 12,000 FEET WITH NO 
SIGNIFICANT WEATHER AND/OR OBSTRUCTIONS TO VISIBILITY.

WAZ507-509-555>559-180400-
SEATTLE, TACOMA, EVERETT, AND VICINITY
  
CITY           SKY/WX    TMP DP  RH WIND       PRES   REMARKS
EVERETT        CLOUDY    58  44  60 S12       30.29S                  
BOEING FIELD   CLOUDY    60  44  55 VRB3      30.29S                  
RENTON         CLOUDY    61  45  55 CALM      30.29S                  
SEATAC AIRPORT MOCLDY    59  45  59 SW7       30.29S                  
JBLM-MCCHORD   MOCLDY    59  50  72 W6        30.29S                  
PUYALLUP       CLOUDY    59  45  58 W3        30.30S                  
BREMERTON      CLOUDY    54  46  74 SW10      30.29S                  
JBLM-FT LEWIS  MOCLDY    59  50  74 W6        30.29S                  
TACOMA NARROWS MOCLDY    57  46  66 W5        30.29S                  
$$
 
WAZ001-503-506-510-514-515-180400-
NORTH INTERIOR
  
CITY           SKY/WX    TMP DP  RH WIND       PRES   REMARKS
BELLINGHAM     CLOUDY    57  46  66 S6        30.28S                  
FRIDAY HARBOR  CLOUDY    55  47  74 CALM      30.28F                  
EASTSOUND      CLOUDY    57  48  72 S6        30.26F                  
PORT ANGELES   CLOUDY    52  47  83 W5        30.28S                  
EDIZ HOOK      CLOUDY    51  47  86 W6        30.28S                  
PORT TOWNSEND  CLOUDY    59  46  63 SE3       30.26S                  
NAS WHIDBEY    CLOUDY    61  46  57 SE9       30.31S                  
ARLINGTON      CLOUDY    58  45  62 SE6       30.29S                  
BURLINGTON     CLOUDY    59  48  67 CALM      30.28S                  
$$
 
WAZ020-022-039-040-504-511-512-180400-
SOUTHWEST INTERIOR
  
CITY           SKY/WX    TMP DP  RH WIND       PRES   REMARKS
SHELTON        CLOUDY    55  48  77 W8        30.28F                  
OLYMPIA        CLOUDY    58  46  64 CALM      30.29F                  
CHEHALIS       MOCLDY    57  50  77 CALM      30.29F                  
KELSO          CLOUDY    60  48  64 CALM      30.29F                  
VANCOUVER      CLEAR     63  43  48 CALM      30.28S                  
SCAPPOOSE, OR  CLEAR     59  47  64 W3        30.28S                  
PORTLAND, OR   PTCLDY    63  44  50 CALM      30.29S                  
$$
 
WAZ021-516-517-180400-
WASHINGTON COAST
  
CITY           SKY/WX    TMP DP  RH WIND       PRES   REMARKS
FORKS          CLOUDY    50  50 100 SE8G18    30.27F                  
HOQUIAM        CLOUDY    53  51  93 CALM      30.30F                  
ASTORIA, OR    CLOUDY    53  48  83 SW5       30.30S                  
$$
 
WAZ019-023-024-040-567>569-180400-
CASCADE MOUNTAINS AND COLUMBIA GORGE
  
CITY           SKY/WX    TMP DP  RH WIND       PRES   REMARKS
STAMPEDE PASS  NOT AVBL                                               
TROUTDALE, OR  CLEAR     62  45  53 CALM      30.28F                  
HOOD RIVER, OR CLEAR     59  43  55 MISG      30.26R                  
THE DALLES, OR PTCLDY    61  43  51 W23       30.23R                  
$$

WAZ026-027-041>044-520-521-180400-
EAST SLOPES
  
CITY           SKY/WX    TMP DP  RH WIND       PRES   REMARKS
OMAK           MOCLDY    62  32  32 S12       30.12R HAZE             
WENATCHEE      MOCLDY    60  29  30 NW15      30.17R                  
ELLENSBURG     MOCLDY    56  35  45 NW14      30.22R                  
YAKIMA         PTCLDY    62  37  39 E8        30.19R                  
SUNNYSIDE ARPT CLEAR     59  42  54 NE6       30.19S                  
YAKIMA TC      FAIR      57  37  47 E12       30.19R                  
$$

WAZ028-034-035-180400-
COLUMBIA BASIN
  
CITY           SKY/WX    TMP DP  RH WIND       PRES   REMARKS
EPHRATA        PTCLDY    63  31  30 NW8       30.16R                  
MOSES LAKE     CLEAR     64  33  31 SW12      30.17R                  
PASCO          CLEAR     64  40  41 SW8       30.20S                  
RICHLAND ARPT  CLEAR     63  41  45 S5        30.20                   
HERMISTON, OR  CLEAR     60  36  40 SW6       30.20S                  
$$

WAZ036>038-180400-
NORTHEAST WASHINGTON
  
CITY           SKY/WX    TMP DP  RH WIND       PRES   REMARKS
SPOKANE GEIGER PTCLDY    56  32  40 SW10      30.19R                  
SPOKANE FELTS  CLEAR     57  31  37 SW10      30.19R                  
FAIRCHILD AFB  CLEAR     53  35  50 SW13      30.19R                  
COEURDALENE,ID CLEAR     51  35  54 S10       30.20R                  
DEER PARK      CLEAR     56  32  40 S10       30.17R                  
$$

WAZ029>033-180400-
SOUTHEAST WASHINGTON
  
CITY           SKY/WX    TMP DP  RH WIND       PRES   REMARKS
PULLMAN        CLEAR     51  40  65 SW5       30.25S                  
LEWISTON, ID   CLEAR     59  37  44 E3        30.22S                  
WALLA WALLA    CLEAR     58  41  53 S7        30.22S                  
PENDLETON, OR  CLEAR     53  39  59 NW10      30.22S                  
$$